| time (UTC) | temp F | wind direction | speed knots | gust knots | rain 1hr in | rain 24hr in | rain mn in | humidity % | barometer mb |
| 20260504081539 | 48 | 359 | 1.7 | 3.5 | 0.00 | 0.00 | 0.00 | 66 | 1007.7 |
| 20260504044554 | 52 | 359 | 0.9 | 3.5 | 0.00 | 0.00 | 0.00 | 59 | 1010.0 |
| 20260504043004 | 53 | 359 | 1.7 | 2.6 | 0.00 | 0.00 | 0.00 | 57 | 1010.1 |
| 20260504041513 | 54 | 359 | 2.6 | 3.5 | 0.00 | 0.00 | 0.00 | 55 | 1010.2 |
| 20260504040030 | 56 | 359 | 3.5 | 5.2 | 0.00 | 0.00 | 0.00 | 52 | 1010.5 |
| 20260504034541 | 57 | 359 | 7.0 | 7.8 | 0.00 | 0.00 | 0.00 | 51 | 1010.4 |
| 20260504033052 | 57 | 359 | 6.1 | 7.0 | 0.00 | 0.00 | 0.00 | 50 | 1010.6 |
| 20260504031558 | 58 | 359 | 6.1 | 7.0 | 0.00 | 0.00 | 0.00 | 49 | 1010.5 |
| 20260504031504 | 58 | 359 | 6.1 | 7.0 | 0.00 | 0.00 | 0.00 | 49 | 1010.5 |
| 20260504030023 | 57 | 359 | 5.2 | 7.0 | 0.00 | 0.00 | 0.00 | 50 | 1010.7 |
| 20260504024527 | 57 | 359 | 2.6 | 4.3 | 0.00 | 0.00 | 0.00 | 54 | 1010.4 |
| 20260504023037 | 58 | 359 | 2.6 | 7.0 | 0.00 | 0.00 | 0.00 | 51 | 1010.3 |
| 20260504021554 | 61 | 359 | 4.3 | 7.0 | 0.00 | 0.00 | 0.00 | 45 | 1010.2 |
| 20260504020059 | 63 | 275 | 6.1 | 10.4 | 0.00 | 0.00 | 0.00 | 41 | 1010.1 |
| 20260504014512 | 63 | 266 | 7.0 | 9.6 | 0.00 | 0.00 | 0.00 | 41 | 1010.0 |
| 20260504013019 | 64 | 277 | 5.2 | 8.7 | 0.00 | 0.00 | 0.00 | 39 | 1009.9 |
| 20260504011531 | 65 | 278 | 6.1 | 7.8 | 0.00 | 0.00 | 0.00 | 39 | 1009.7 |
| 20260504010041 | 67 | 274 | 6.1 | 9.6 | 0.00 | 0.00 | 0.00 | 36 | 1009.6 |
| 20260504004553 | 69 | 270 | 7.0 | 11.3 | 0.00 | 0.00 | 0.00 | 34 | 1009.5 |
| 20260504003101 | 70 | 280 | 7.8 | 12.2 | 0.00 | 0.00 | 0.00 | 31 | 1009.6 |
| 20260504001513 | 71 | 275 | 10.4 | 14.8 | 0.00 | 0.00 | 0.00 | 30 | 1009.5 |
| 20260504000020 | 72 | 294 | 7.8 | 13.9 | 0.00 | 0.00 | 0.00 | 30 | 1009.5 |
| 20260503234543 | 72 | 293 | 7.0 | 13.9 | 0.00 | 0.00 | 0.00 | 28 | 1009.3 |
| 20260503233037 | 73 | 276 | 8.7 | 15.6 | 0.00 | 0.00 | 0.00 | 28 | 1009.3 |
| 20260503231549 | 73 | 281 | 13.0 | 21.7 | 0.00 | 0.00 | 0.00 | 27 | 1009.2 |
| 20260503230059 | 73 | 293 | 9.6 | 20.0 | 0.00 | 0.00 | 0.00 | 28 | 1009.3 |
| 20260503224512 | 74 | 293 | 12.2 | 18.2 | 0.00 | 0.00 | 0.00 | 27 | 1009.0 |
| 20260503223015 | 74 | 316 | 9.6 | 14.8 | 0.00 | 0.00 | 0.00 | 31 | 1009.1 |
| 20260503221529 | 74 | 285 | 13.9 | 22.6 | 0.00 | 0.00 | 0.00 | 30 | 1009.0 |
| 20260503220046 | 74 | 285 | 10.4 | 17.4 | 0.00 | 0.00 | 0.00 | 32 | 1009.0 |
| 20260503214549 | 74 | 286 | 10.4 | 21.7 | 0.00 | 0.00 | 0.00 | 30 | 1009.0 |
| 20260503213108 | 74 | 280 | 13.9 | 21.7 | 0.00 | 0.00 | 0.00 | 30 | 1008.9 |
| 20260503211511 | 74 | 313 | 12.2 | 18.2 | 0.00 | 0.00 | 0.00 | 33 | 1009.0 |
| 20260503210021 | 74 | 287 | 12.2 | 20.0 | 0.00 | 0.00 | 0.00 | 34 | 1009.0 |
| 20260503204537 | 74 | 258 | 11.3 | 21.7 | 0.00 | 0.00 | 0.00 | 34 | 1009.0 |
| 20260503203051 | 74 | 297 | 12.2 | 20.0 | 0.00 | 0.00 | 0.00 | 32 | 1009.2 |
| 20260503201557 | 74 | 275 | 13.9 | 20.9 | 0.00 | 0.00 | 0.00 | 33 | 1009.2 |
| 20260503200009 | 74 | 270 | 17.4 | 26.9 | 0.00 | 0.00 | 0.00 | 36 | 1009.3 |
| 20260503194514 | 72 | 310 | 10.4 | 20.9 | 0.00 | 0.00 | 0.00 | 36 | 1009.6 |
| 20260503193035 | 73 | 279 | 12.2 | 25.2 | 0.00 | 0.00 | 0.00 | 38 | 1009.7 |
| 20260503191537 | 71 | 275 | 8.7 | 17.4 | 0.00 | 0.00 | 0.00 | 39 | 1009.8 |
| 20260503190055 | 71 | 296 | 10.4 | 17.4 | 0.00 | 0.00 | 0.00 | 40 | 1009.9 |
| 20260503184607 | 70 | 265 | 7.8 | 17.4 | 0.00 | 0.00 | 0.00 | 39 | 1010.1 |
| 20260503183009 | 70 | 214 | 6.1 | 18.2 | 0.00 | 0.00 | 0.00 | 44 | 1010.2 |
| 20260503181514 | 69 | 206 | 10.4 | 17.4 | 0.00 | 0.00 | 0.00 | 43 | 1010.6 |
| 20260503180029 | 69 | 242 | 11.3 | 17.4 | 0.00 | 0.00 | 0.00 | 46 | 1010.8 |
| 20260503174534 | 67 | 264 | 11.3 | 19.1 | 0.00 | 0.00 | 0.00 | 44 | 1011.0 |
| 20260503173056 | 66 | 241 | 9.6 | 20.0 | 0.00 | 0.00 | 0.00 | 45 | 1011.3 |
| 20260503171553 | 65 | 241 | 10.4 | 19.1 | 0.00 | 0.00 | 0.00 | 46 | 1011.5 |